User: anonymous   Login
Location: Newark
(53.0000°N, 1.0000°W)
Time: 11:27:25
(UTC+00:00)
Language:

M-CUBED/EXP-1 PRIME - Orbit

View from above orbital plane
View from above orbital plane
View from above satellite
View from above satellite

Ground track
Ground track

The orbit data is extracted from the following two-line orbital elements,

1 37855U 11061F   20028.60920947 +.00000553 +00000-0 +35321-4 0  9997
2 37855 101.7268 044.3859 0172051 132.8594 228.7217 15.05955540450003
Epoch (UTC): 28 January 2020 14:37:15
Eccentricity: 0.0172051
inclination: 101.7268°
perigee height: 429 km
apogee height: 668 km
right ascension of ascending node: 44.3859°
argument of perigee: 132.8594°
revolutions per day: 15.05955540
mean anomaly at epoch: 228.7217°
orbit number at epoch: 45000

The dashed part of the orbit path shows where the satellite is in the earth's shadow,  

DLR